Cumberland, WI

11:28 PM CST on November 11, 2019 (GMT -0600)
Cumberland Municipal

Weather History for KUBE - October, 2019

Change the Weather History Date:

Monday, October 21, 2019

  Actual Average (KRPD) Record (KRPD)
Temperature  
Mean Temperature 48 °F -  
Max Temperature 53 °F 52 °F 69 °F (1999)
Min Temperature 42 °F 35 °F 21 °F (2018)
Degree Days  
Heating Degree Days 16    
Moisture  
Dew Point 41 °F    
Average Humidity 78    
Maximum Humidity 100    
Minimum Humidity 50    
Precipitation  
Precipitation 1.43 in - - ()
Sea Level Pressure  
Sea Level Pressure 29.39 in    
Wind  
Wind Speed 10 mph ()    
Max Wind Speed 20 mph    
Max Gust Speed 26 mph    
Visibility 8.0 miles    
Events Rain    
Averages and records for this station are not official NWS values.
T = Trace of Precipitation, MM = Missing Value Source: Averaged Metar Reports

Daily Weather History Graph

Daily Weather History Graph

Search for Another Location

Airport or City:

Astronomy

Oct. 21, 2019 Rise Set
Actual Time 7:31 AM CDT 6:12 PM CDT
Civil Twilight 7:01 AM CDT 6:42 PM CDT
Nautical Twilight 6:27 AM CDT 7:16 PM CDT
Astronomical Twilight 5:53 AM CDT 7:51 PM CDT
Moon No Moon Rise 3:00 PM CDT (10/21)
Length of Visible Light 11h 40m
Length of Day
10h 40m
Waning Gibbous, 48% of the Moon is Illuminated
Oct 21
Waning Gibbous
Oct 27
New
Nov 4
First Quarter
Nov 12
Full
Nov 19
Last Quarter

Hourly Weather History & Observations

Time (CDT) Temp. Windchill Dew Point Humidity Pressure Visibility Wind Dir Wind Speed Gust Speed Precip Events Conditions
12:15 AM 50.0 °F - 33.8 °F 54% 29.84 in 10.0 mi ESE 6.9 mph - N/A   Clear
12:35 AM 50.0 °F - 33.8 °F 54% 29.83 in 10.0 mi ESE 6.9 mph - N/A   Clear
12:55 AM 50.0 °F - 33.8 °F 54% 29.82 in 10.0 mi East 6.9 mph - N/A   Clear
1:15 AM 50.0 °F - 33.8 °F 54% 29.81 in 10.0 mi East 6.9 mph - N/A   Clear
1:35 AM 48.2 °F - 35.6 °F 62% 29.79 in 10.0 mi East 6.9 mph - N/A   Clear
1:55 AM 48.2 °F - 35.6 °F 62% 29.76 in 10.0 mi East 6.9 mph - N/A   Clear
2:15 AM 48.2 °F - 35.6 °F 62% 29.74 in 10.0 mi East 8.1 mph - N/A   Clear
2:35 AM 50.0 °F - 33.8 °F 54% 29.75 in 10.0 mi ESE 6.9 mph - N/A   Clear
2:55 AM 50.0 °F - 33.8 °F 54% 29.75 in 10.0 mi ESE 10.4 mph - N/A   Clear
3:15 AM 50.0 °F - 33.8 °F 54% 29.75 in 10.0 mi ESE 13.8 mph - N/A   Clear
3:35 AM 50.0 °F - 33.8 °F 54% 29.75 in 10.0 mi ESE 10.4 mph 18.4 mph N/A   Scattered Clouds
3:55 AM 50.0 °F - 33.8 °F 54% 29.73 in 10.0 mi ESE 8.1 mph 17.3 mph N/A   Scattered Clouds
4:15 AM 50.0 °F - 32.0 °F 50% 29.71 in 10.0 mi East 9.2 mph - N/A   Scattered Clouds
4:35 AM 48.2 °F - 33.8 °F 58% 29.70 in 10.0 mi East 9.2 mph 17.3 mph N/A   Clear
4:55 AM 48.2 °F - 33.8 °F 58% 29.68 in 10.0 mi East 12.7 mph 18.4 mph N/A   Scattered Clouds
5:15 AM 46.4 °F 41.5 °F 33.8 °F 62% 29.66 in 10.0 mi East 10.4 mph 19.6 mph N/A   Mostly Cloudy
5:35 AM 48.2 °F - 33.8 °F 58% 29.66 in 10.0 mi East 12.7 mph 20.7 mph N/A   Overcast
5:55 AM 48.2 °F - 32.0 °F 54% 29.64 in 10.0 mi East 13.8 mph 19.6 mph N/A   Overcast
6:15 AM 50.0 °F - 32.0 °F 50% 29.62 in 10.0 mi East 17.3 mph 24.2 mph N/A   Overcast
6:35 AM 50.0 °F - 32.0 °F 50% 29.59 in 10.0 mi East 18.4 mph 24.2 mph N/A   Overcast
6:55 AM 50.0 °F - 32.0 °F 50% 29.57 in 10.0 mi East 15.0 mph 21.9 mph N/A   Overcast
7:15 AM 50.0 °F - 32.0 °F 50% 29.54 in 10.0 mi East 15.0 mph 21.9 mph N/A   Mostly Cloudy
7:35 AM 50.0 °F - 33.8 °F 54% 29.53 in 10.0 mi East 13.8 mph 24.2 mph N/A Rain Light Rain
7:55 AM 46.4 °F 41.5 °F 37.4 °F 71% 29.52 in 7.0 mi East 10.4 mph 18.4 mph N/A Rain Rain
8:15 AM 44.6 °F 38.8 °F 39.2 °F 81% 29.49 in 5.0 mi ENE 11.5 mph 21.9 mph 0.03 in Rain Light Rain
8:35 AM 44.6 °F 38.1 °F 41.0 °F 87% 29.48 in 5.0 mi ENE 13.8 mph - 0.07 in Rain Rain
8:55 AM 44.6 °F 38.1 °F 41.0 °F 87% 29.47 in 2.0 mi ENE 13.8 mph 19.6 mph 0.18 in Rain Rain
9:15 AM 44.6 °F 38.8 °F 42.8 °F 93% 29.46 in 1.8 mi ENE 11.5 mph - 0.10 in Rain Light Rain
9:35 AM 44.6 °F 37.8 °F 42.8 °F 93% 29.45 in 4.0 mi ENE 15.0 mph - 0.17 in Rain Rain
9:55 AM 44.6 °F 38.4 °F 42.8 °F 93% 29.43 in 3.0 mi ENE 12.7 mph 18.4 mph 0.27 in Rain Heavy Rain
10:15 AM 44.6 °F 38.1 °F 44.6 °F 100% 29.42 in 3.0 mi ENE 13.8 mph - 0.07 in Rain Rain
10:35 AM 44.6 °F 38.1 °F 44.6 °F 100% 29.39 in 4.0 mi ENE 13.8 mph - 0.16 in Rain Rain
10:55 AM 44.6 °F 38.1 °F 44.6 °F 100% 29.36 in 4.0 mi ENE 13.8 mph 21.9 mph 0.23 in Rain Rain
11:15 AM 46.4 °F 39.2 °F 44.6 °F 93% 29.32 in 4.0 mi ENE 18.4 mph 25.3 mph 0.08 in Rain Light Rain
11:35 AM 46.4 °F 40.1 °F 46.4 °F 100% 29.30 in 3.0 mi ENE 15.0 mph 24.2 mph 0.16 in Rain Rain
11:55 AM 46.4 °F 39.2 °F 46.4 °F 100% 29.26 in 2.5 mi ENE 18.4 mph 25.3 mph 0.28 in Rain Heavy Rain
12:15 PM 48.2 °F - 46.4 °F 93% 29.24 in 3.0 mi East 19.6 mph 24.2 mph 0.06 in Rain Rain
12:35 PM 48.2 °F - 48.2 °F 100% 29.23 in 4.0 mi East 17.3 mph 25.3 mph 0.15 in Rain Heavy Rain
12:55 PM 50.0 °F - 48.2 °F 94% 29.20 in 2.5 mi East 18.4 mph 26.5 mph 0.27 in Rain Rain
1:15 PM 50.0 °F - 48.2 °F 94% 29.19 in 2.5 mi East 18.4 mph 25.3 mph 0.10 in Rain Rain
1:35 PM 50.0 °F - 48.2 °F 94% 29.17 in 4.0 mi East 15.0 mph 19.6 mph 0.15 in Rain Light Rain
1:55 PM 50.0 °F - 46.4 °F 87% 29.16 in 7.0 mi East 10.4 mph 21.9 mph 0.18 in Rain Light Rain
2:15 PM 50.0 °F - 48.2 °F 94% 29.14 in 10.0 mi East 10.4 mph 16.1 mph 0.01 in Rain Rain
2:35 PM 50.0 °F - 46.4 °F 87% 29.12 in 10.0 mi East 11.5 mph 18.4 mph 0.02 in   Overcast
2:55 PM 50.0 °F - 48.2 °F 94% 29.12 in 10.0 mi ESE 13.8 mph 17.3 mph 0.02 in   Overcast
3:15 PM 51.8 °F - 50.0 °F 94% 29.12 in 10.0 mi ESE 10.4 mph 18.4 mph N/A   Overcast
3:35 PM 51.8 °F - 50.0 °F 94% 29.14 in 10.0 mi SE 13.8 mph 21.9 mph N/A   Overcast
3:55 PM 51.8 °F - 48.2 °F 88% 29.14 in 10.0 mi SSE 11.5 mph - N/A   Overcast
4:15 PM 53.6 °F - 46.4 °F 77% 29.14 in 10.0 mi South 11.5 mph - N/A   Mostly Cloudy
4:35 PM 51.8 °F - 46.4 °F 82% 29.14 in 10.0 mi SSE 13.8 mph - N/A   Scattered Clouds
4:55 PM 53.6 °F - 44.6 °F 72% 29.15 in 10.0 mi SSE 12.7 mph 18.4 mph N/A   Mostly Cloudy
5:15 PM 51.8 °F - 44.6 °F 76% 29.15 in 10.0 mi SSE 10.4 mph - N/A   Scattered Clouds
5:35 PM 51.8 °F - 44.6 °F 76% 29.15 in 10.0 mi SE 6.9 mph - N/A   Scattered Clouds
5:55 PM 51.8 °F - 44.6 °F 76% 29.15 in 10.0 mi SE 5.8 mph - N/A   Clear
6:15 PM 51.8 °F - 44.6 °F 76% 29.15 in 10.0 mi Calm Calm - N/A   Mostly Cloudy
6:35 PM 50.0 °F - 44.6 °F 82% 29.17 in 7.0 mi South 15.0 mph 24.2 mph N/A Rain Light Rain
6:55 PM 48.2 °F - 44.6 °F 87% 29.18 in 10.0 mi South 11.5 mph - N/A   Overcast
7:15 PM 46.4 °F 41.5 °F 44.6 °F 93% 29.18 in 10.0 mi South 10.4 mph 18.4 mph N/A   Overcast
7:35 PM 46.4 °F 41.5 °F 44.6 °F 93% 29.19 in 10.0 mi SSE 10.4 mph - N/A   Overcast
7:55 PM 46.4 °F 42.4 °F 44.6 °F 93% 29.19 in 10.0 mi SSE 8.1 mph - N/A   Overcast
8:15 PM 46.4 °F 41.1 °F 44.6 °F 93% 29.19 in 10.0 mi SSE 11.5 mph 16.1 mph N/A   Overcast
8:35 PM 46.4 °F 40.4 °F 42.8 °F 87% 29.19 in 10.0 mi SSE 13.8 mph 20.7 mph N/A   Overcast
8:55 PM 46.4 °F 41.5 °F 42.8 °F 87% 29.19 in 10.0 mi SSE 10.4 mph - N/A   Overcast
9:15 PM 46.4 °F 40.4 °F 42.8 °F 87% 29.19 in 10.0 mi SE 13.8 mph 17.3 mph N/A   Overcast
9:35 PM 46.4 °F 42.4 °F 42.8 °F 87% 29.18 in 10.0 mi SSE 8.1 mph - N/A   Overcast
9:55 PM 46.4 °F 41.5 °F 41.0 °F 81% 29.19 in 10.0 mi SSE 10.4 mph - N/A   Overcast
10:15 PM 44.6 °F 38.8 °F 41.0 °F 87% 29.18 in 10.0 mi SSE 11.5 mph 17.3 mph N/A   Overcast
10:35 PM 44.6 °F 39.7 °F 41.0 °F 87% 29.19 in 7.0 mi SE 9.2 mph - N/A   Overcast
10:55 PM 44.6 °F 41.4 °F 42.8 °F 93% 29.19 in 5.0 mi SE 5.8 mph - N/A Rain Light Rain
11:15 PM 44.6 °F 40.2 °F 42.8 °F 93% 29.19 in 5.0 mi SE 8.1 mph - N/A   Light Drizzle
11:35 PM 44.6 °F 42.2 °F 42.8 °F 93% 29.19 in 4.0 mi ESE 4.6 mph - N/A   Light Drizzle
11:55 PM 42.8 °F 40.1 °F 42.8 °F 100% 29.19 in 10.0 mi ESE 4.6 mph - N/A   Overcast